Time,TemperatureF,DewpointF,PressureIn,WindDirection,WindDirectionDegrees,WindSpeedMPH,WindSpeedGustMPH,Humidity,HourlyPrecipIn,Conditions,Clouds,dailyrainin,SolarRadiationWatts/m^2,SoftwareType,DateUTC
2013-01-18 00:00:00,21.9,8.6,30.57,ESE,109,0.0,-999.0,63,-99.99,,,0.00,0.0,cwc,2013-01-18 07:00:00,
2013-01-18 00:05:00,20.3,10.2,30.57,ESE,109,0.0,-999.0,72,-99.99,,,0.00,0.0,cwc,2013-01-18 07:05:00,
2013-01-18 00:10:00,20.5,11.1,30.57,ESE,109,0.0,-999.0,74,-99.99,,,0.00,0.0,cwc,2013-01-18 07:10:00,
2013-01-18 00:15:00,19.5,10.1,30.57,ESE,109,0.0,-999.0,74,-99.99,,,0.00,0.0,cwc,2013-01-18 07:15:00,
2013-01-18 00:20:00,18.1,-17.5,30.56,ESE,109,0.0,-999.0,1,-99.99,,,0.00,0.0,cwc,2013-01-18 07:20:00,
2013-01-18 00:25:00,21.8,-13.8,30.56,ESE,109,0.0,-999.0,1,-99.99,,,0.00,0.0,cwc,2013-01-18 07:25:00,
2013-01-18 00:30:00,18.8,-14.7,30.56,ESE,109,0.0,-999.0,7,-99.99,,,0.00,0.0,cwc,2013-01-18 07:30:00,
2013-01-18 00:35:00,17.0,-18.6,30.57,ESE,109,0.0,-999.0,1,-99.99,,,0.00,0.0,cwc,2013-01-18 07:35:00,
2013-01-18 00:40:00,17.3,-16.2,30.57,ESE,109,0.0,-999.0,7,-99.99,,,0.00,0.0,cwc,2013-01-18 07:40:00,
2013-01-18 00:45:00,15.9,-18.7,30.57,ESE,109,0.0,-999.0,4,-99.99,,,0.00,0.0,cwc,2013-01-18 07:45:00,
2013-01-18 00:50:00,15.9,-19.7,30.58,ESE,109,0.0,-999.0,1,-99.99,,,0.00,0.0,cwc,2013-01-18 07:50:00,
2013-01-18 00:55:00,22.1,-13.5,30.58,ESE,109,0.0,-999.0,1,-99.99,,,0.00,0.0,cwc,2013-01-18 07:55:00,
2013-01-18 01:00:00,18.3,-12.3,30.58,ESE,109,0.0,-999.0,15,-99.99,,,0.00,0.0,cwc,2013-01-18 08:00:00,
2013-01-18 01:05:00,17.0,-15.0,30.56,ESE,109,0.0,-999.0,11,-99.99,,,0.00,0.0,cwc,2013-01-18 08:05:00,
2013-01-18 01:10:00,16.2,-19.4,30.56,ESE,109,0.0,-999.0,1,-99.99,,,0.00,0.0,cwc,2013-01-18 08:10:00,
2013-01-18 01:15:00,24.1,-5.4,30.56,ESE,109,0.0,-999.0,18,-99.99,,,0.00,0.0,cwc,2013-01-18 08:15:00,
2013-01-18 01:20:00,20.2,-9.7,30.48,ESE,109,0.0,-999.0,17,-99.99,,,0.00,0.0,cwc,2013-01-18 08:20:00,
2013-01-18 01:25:00,18.9,-11.0,30.48,ESE,109,0.0,-999.0,17,-99.99,,,0.00,0.0,cwc,2013-01-18 08:25:00,
2013-01-18 01:30:00,17.5,-15.3,30.48,ESE,109,0.0,-999.0,9,-99.99,,,0.00,0.0,cwc,2013-01-18 08:30:00,
2013-01-18 01:35:00,18.9,-8.8,30.51,ESE,109,0.0,-999.0,23,-99.99,,,0.00,0.0,cwc,2013-01-18 08:35:00,
2013-01-18 01:40:00,17.8,-12.8,30.51,ESE,109,0.0,-999.0,15,-99.99,,,0.00,0.0,cwc,2013-01-18 08:40:00,
2013-01-18 01:45:00,18.1,-10.0,30.51,ESE,109,0.0,-999.0,22,-99.99,,,0.00,0.0,cwc,2013-01-18 08:45:00,
2013-01-18 01:50:00,16.5,-14.5,30.50,ESE,109,0.0,-999.0,14,-99.99,,,0.00,0.0,cwc,2013-01-18 08:50:00,
2013-01-18 01:55:00,18.0,-12.2,30.50,ESE,109,0.0,-999.0,16,-99.99,,,0.00,0.0,cwc,2013-01-18 08:55:00,
2013-01-18 02:00:00,17.0,-9.3,30.50,ESE,109,0.0,-999.0,27,-99.99,,,0.00,0.0,cwc,2013-01-18 09:00:00,
2013-01-18 02:05:00,19.5,-7.1,30.50,ESE,109,0.0,-999.0,26,-99.99,,,0.00,0.0,cwc,2013-01-18 09:05:00,
2013-01-18 02:10:00,26.1,-0.5,30.50,ESE,109,0.0,-999.0,26,-99.99,,,0.00,0.0,cwc,2013-01-18 09:10:00,
2013-01-18 02:15:00,20.2,-1.8,30.50,ESE,109,0.0,-999.0,39,-99.99,,,0.00,0.0,cwc,2013-01-18 09:15:00,
2013-01-18 02:20:00,22.5,-1.6,30.50,ESE,109,0.0,-999.0,33,-99.99,,,0.00,0.0,cwc,2013-01-18 09:20:00,
2013-01-18 02:25:00,20.8,-0.4,30.50,ESE,109,0.0,-999.0,41,-99.99,,,0.00,0.0,cwc,2013-01-18 09:25:00,
2013-01-18 02:30:00,17.7,-6.4,30.50,ESE,109,0.0,-999.0,33,-99.99,,,0.00,0.0,cwc,2013-01-18 09:30:00,
2013-01-18 02:35:00,17.0,-8.2,30.52,ESE,109,0.0,-999.0,30,-99.99,,,0.00,0.0,cwc,2013-01-18 09:35:00,
2013-01-18 02:40:00,14.8,-12.6,30.52,ESE,109,0.0,-999.0,24,-99.99,,,0.00,0.0,cwc,2013-01-18 09:40:00,
2013-01-18 02:45:00,14.1,-13.6,30.52,ESE,109,0.0,-999.0,23,-99.99,,,0.00,0.0,cwc,2013-01-18 09:45:00,
2013-01-18 02:50:00,13.8,-14.6,30.49,ESE,109,0.0,-999.0,21,-99.99,,,0.00,0.0,cwc,2013-01-18 09:50:00,
2013-01-18 02:55:00,14.4,-14.4,30.49,ESE,109,0.0,-999.0,20,-99.99,,,0.00,0.0,cwc,2013-01-18 09:55:00,
2013-01-18 03:00:00,13.1,-16.1,30.49,ESE,109,0.0,-999.0,19,-99.99,,,0.00,0.0,cwc,2013-01-18 10:00:00,
2013-01-18 03:05:00,13.8,-15.4,30.54,ESE,109,0.0,-999.0,19,-99.99,,,0.00,0.0,cwc,2013-01-18 10:05:00,
2013-01-18 03:10:00,14.6,-14.2,30.54,ESE,109,0.0,-999.0,20,-99.99,,,0.00,0.0,cwc,2013-01-18 10:10:00,
2013-01-18 03:15:00,13.6,-15.6,30.54,ESE,109,0.0,-999.0,19,-99.99,,,0.00,0.0,cwc,2013-01-18 10:15:00,
2013-01-18 03:20:00,18.8,-8.9,30.53,ESE,109,0.0,-999.0,23,-99.99,,,0.00,0.0,cwc,2013-01-18 10:20:00,
2013-01-18 03:25:00,14.0,-15.2,30.53,ESE,109,0.0,-999.0,19,-99.99,,,0.00,0.0,cwc,2013-01-18 10:25:00,
2013-01-18 03:30:00,12.9,-17.0,30.53,ESE,109,0.0,-999.0,17,-99.99,,,0.00,0.0,cwc,2013-01-18 10:30:00,
2013-01-18 03:35:00,12.1,-18.1,30.53,ESE,109,0.0,-999.0,16,-99.99,,,0.00,0.0,cwc,2013-01-18 10:35:00,
2013-01-18 03:40:00,15.2,-14.7,30.53,ESE,109,0.0,-999.0,17,-99.99,,,0.00,0.0,cwc,2013-01-18 10:40:00,
2013-01-18 03:45:00,14.3,-16.3,30.53,ESE,109,0.0,-999.0,15,-99.99,,,0.00,0.0,cwc,2013-01-18 10:45:00,
2013-01-18 03:50:00,12.9,-18.1,30.53,ESE,109,0.0,-999.0,14,-99.99,,,0.00,0.0,cwc,2013-01-18 10:50:00,
2013-01-18 03:55:00,11.9,-21.2,30.53,ESE,109,0.0,-999.0,8,-99.99,,,0.00,0.0,cwc,2013-01-18 10:55:00,
2013-01-18 04:00:00,16.9,-10.1,30.53,ESE,109,0.0,-999.0,25,-99.99,,,0.00,0.0,cwc,2013-01-18 11:00:00,
2013-01-18 04:05:00,15.2,-14.0,30.50,ESE,109,0.0,-999.0,19,-99.99,,,0.00,0.0,cwc,2013-01-18 11:05:00,
2013-01-18 04:10:00,14.4,-15.5,30.50,ESE,109,0.0,-999.0,17,-99.99,,,0.00,0.0,cwc,2013-01-18 11:10:00,
2013-01-18 04:15:00,13.6,-17.7,30.50,ESE,109,0.0,-999.0,13,-99.99,,,0.00,0.0,cwc,2013-01-18 11:15:00,
2013-01-18 04:20:00,18.8,-11.1,30.51,ESE,109,0.0,-999.0,17,-99.99,,,0.00,0.0,cwc,2013-01-18 11:20:00,
2013-01-18 04:25:00,17.2,-4.4,30.51,ESE,109,0.0,-999.0,40,-99.99,,,0.00,0.0,cwc,2013-01-18 11:25:00,
2013-01-18 04:30:00,20.0,-2.3,30.51,ESE,109,0.0,-999.0,38,-99.99,,,0.00,0.0,cwc,2013-01-18 11:30:00,
2013-01-18 04:35:00,17.5,-6.3,30.49,ESE,109,0.0,-999.0,34,-99.99,,,0.00,0.0,cwc,2013-01-18 11:35:00,
2013-01-18 04:40:00,16.7,-8.9,30.49,ESE,109,0.0,-999.0,29,-99.99,,,0.00,0.0,cwc,2013-01-18 11:40:00,
2013-01-18 04:45:00,14.9,-11.4,30.49,ESE,109,0.0,-999.0,27,-99.99,,,0.00,0.0,cwc,2013-01-18 11:45:00,
2013-01-18 04:50:00,18.3,-5.1,30.54,ESE,109,0.0,-999.0,35,-99.99,,,0.00,0.0,cwc,2013-01-18 11:50:00,
2013-01-18 04:55:00,15.7,-8.1,30.54,ESE,109,0.0,-999.0,34,-99.99,,,0.00,0.0,cwc,2013-01-18 11:55:00,
2013-01-18 05:00:00,13.6,-13.8,30.54,ESE,109,0.0,-999.0,24,-99.99,,,0.00,0.0,cwc,2013-01-18 12:00:00,
2013-01-18 05:05:00,12.3,-16.1,30.54,ESE,109,0.0,-999.0,21,-99.99,,,0.00,0.0,cwc,2013-01-18 12:05:00,
2013-01-18 05:10:00,13.3,-14.8,30.54,ESE,109,0.0,-999.0,22,-99.99,,,0.00,0.0,cwc,2013-01-18 12:10:00,
2013-01-18 05:15:00,12.9,-14.8,30.54,ESE,109,0.0,-999.0,23,-99.99,,,0.00,0.0,cwc,2013-01-18 12:15:00,
2013-01-18 05:20:00,13.1,-16.8,30.62,ESE,109,0.0,-999.0,17,-99.99,,,0.00,0.0,cwc,2013-01-18 12:20:00,
2013-01-18 05:25:00,11.6,-18.3,30.62,ESE,109,0.0,-999.0,17,-99.99,,,0.00,0.0,cwc,2013-01-18 12:25:00,
2013-01-18 05:30:00,11.4,-19.2,30.62,ESE,109,0.0,-999.0,15,-99.99,,,0.00,0.0,cwc,2013-01-18 12:30:00,
2013-01-18 05:35:00,11.4,-19.2,30.63,ESE,109,0.0,-999.0,15,-99.99,,,0.00,0.0,cwc,2013-01-18 12:35:00,
2013-01-18 05:40:00,11.4,-19.2,30.63,ESE,109,0.0,-999.0,15,-99.99,,,0.00,0.0,cwc,2013-01-18 12:40:00,
2013-01-18 05:45:00,11.4,-19.2,30.63,ESE,109,0.0,-999.0,15,-99.99,,,0.00,0.0,cwc,2013-01-18 12:45:00,
2013-01-18 05:50:00,11.4,-19.2,30.63,ESE,109,0.0,-999.0,15,-99.99,,,0.00,0.0,cwc,2013-01-18 12:50:00,
2013-01-18 05:55:00,11.4,-19.2,30.63,ESE,109,0.0,-999.0,15,-99.99,,,0.00,0.0,cwc,2013-01-18 12:55:00,
2013-01-18 06:00:00,11.4,-19.2,30.63,ESE,109,0.0,-999.0,15,-99.99,,,0.00,0.0,cwc,2013-01-18 13:00:00,
2013-01-18 06:05:00,11.4,-19.2,30.63,ESE,109,0.0,-999.0,15,-99.99,,,0.00,0.0,cwc,2013-01-18 13:05:00,
2013-01-18 06:10:00,11.4,-19.2,30.63,ESE,109,0.0,-999.0,15,-99.99,,,0.00,0.0,cwc,2013-01-18 13:10:00,
2013-01-18 06:15:00,12.4,-18.2,30.63,ESE,109,0.0,-999.0,15,-99.99,,,0.00,0.0,cwc,2013-01-18 13:15:00,
2013-01-18 06:20:00,12.4,-18.2,30.67,ESE,109,0.0,-999.0,15,-99.99,,,0.00,0.0,cwc,2013-01-18 13:20:00,
2013-01-18 06:25:00,12.4,-18.2,30.67,ESE,109,0.0,-999.0,15,-99.99,,,0.00,0.0,cwc,2013-01-18 13:25:00,
2013-01-18 06:30:00,12.4,-18.2,30.67,ESE,109,0.0,-999.0,15,-99.99,,,0.00,0.0,cwc,2013-01-18 13:30:00,
2013-01-18 06:35:00,11.6,-19.0,30.67,ESE,109,0.0,-999.0,15,-99.99,,,0.00,0.0,cwc,2013-01-18 13:35:00,
2013-01-18 06:40:00,11.6,-19.0,30.67,ESE,109,0.0,-999.0,15,-99.99,,,0.00,0.0,cwc,2013-01-18 13:40:00,
2013-01-18 06:45:00,11.6,-19.0,30.67,ESE,109,0.0,-999.0,15,-99.99,,,0.00,0.0,cwc,2013-01-18 13:45:00,
2013-01-18 06:50:00,11.6,-19.0,30.67,ESE,109,0.0,-999.0,15,-99.99,,,0.00,0.0,cwc,2013-01-18 13:50:00,
2013-01-18 06:55:00,11.6,-19.0,30.67,ESE,109,0.0,-999.0,15,-99.99,,,0.00,0.0,cwc,2013-01-18 13:55:00,
2013-01-18 07:00:00,11.6,-19.0,30.67,ESE,109,0.0,-999.0,15,-99.99,,,0.00,0.0,cwc,2013-01-18 14:00:00,
2013-01-18 07:05:00,11.6,-19.0,30.49,ESE,109,0.0,-999.0,15,-99.99,,,0.00,0.0,cwc,2013-01-18 14:05:00,
2013-01-18 07:10:00,11.7,-18.9,30.49,ESE,109,0.0,-999.0,15,-99.99,,,0.00,0.0,cwc,2013-01-18 14:10:00,
2013-01-18 07:15:00,11.7,-18.9,30.49,ESE,109,0.0,-999.0,15,-99.99,,,0.00,0.0,cwc,2013-01-18 14:15:00,
2013-01-18 07:20:00,9.9,-20.7,30.62,ESE,109,0.0,-999.0,15,-99.99,,,0.00,0.0,cwc,2013-01-18 14:20:00,
2013-01-18 07:25:00,9.9,-20.7,30.62,ESE,109,0.0,-999.0,15,-99.99,,,0.00,0.0,cwc,2013-01-18 14:25:00,
2013-01-18 07:30:00,9.9,-20.7,30.62,ESE,109,0.0,-999.0,15,-99.99,,,0.00,0.0,cwc,2013-01-18 14:30:00,
2013-01-18 07:35:00,9.9,-20.7,30.63,ESE,109,0.0,-999.0,15,-99.99,,,0.00,0.0,cwc,2013-01-18 14:35:00,
2013-01-18 07:40:00,11.4,-19.2,30.63,ESE,109,0.0,-999.0,15,-99.99,,,0.00,0.0,cwc,2013-01-18 14:40:00,
2013-01-18 07:45:00,11.2,-17.6,30.63,ESE,109,0.0,-999.0,20,-99.99,,,0.00,0.0,cwc,2013-01-18 14:45:00,
2013-01-18 07:50:00,11.7,-21.1,30.69,ESE,109,0.0,-999.0,9,-99.99,,,0.00,0.0,cwc,2013-01-18 14:50:00,
2013-01-18 07:55:00,16.1,-15.6,30.69,ESE,109,0.0,-999.0,12,-99.99,,,0.00,0.0,cwc,2013-01-18 14:55:00,
2013-01-18 08:00:00,14.6,-15.3,30.69,ESE,109,0.0,-999.0,17,-99.99,,,0.00,0.0,cwc,2013-01-18 15:00:00,
2013-01-18 08:05:00,15.4,-14.1,30.66,ESE,109,0.0,-999.0,18,-99.99,,,0.00,0.0,cwc,2013-01-18 15:05:00,
2013-01-18 08:10:00,13.1,-17.9,30.66,ESE,109,0.0,-999.0,14,-99.99,,,0.00,0.0,cwc,2013-01-18 15:10:00,
2013-01-18 08:15:00,13.6,-17.4,30.66,ESE,109,0.0,-999.0,14,-99.99,,,0.00,0.0,cwc,2013-01-18 15:15:00,
2013-01-18 08:20:00,13.1,-17.5,30.68,ESE,109,0.0,-999.0,15,-99.99,,,0.00,0.0,cwc,2013-01-18 15:20:00,
2013-01-18 08:25:00,13.8,-16.4,30.68,ESE,109,0.0,-999.0,16,-99.99,,,0.00,0.0,cwc,2013-01-18 15:25:00,
2013-01-18 08:30:00,13.5,-17.1,30.68,ESE,109,0.0,-999.0,15,-99.99,,,0.00,0.0,cwc,2013-01-18 15:30:00,
2013-01-18 08:35:00,14.6,-15.3,30.68,ESE,109,0.0,-999.0,17,-99.99,,,0.00,0.0,cwc,2013-01-18 15:35:00,
2013-01-18 08:40:00,16.1,-11.3,30.68,ESE,109,0.0,-999.0,24,-99.99,,,0.00,0.0,cwc,2013-01-18 15:40:00,
2013-01-18 08:45:00,16.2,-10.4,30.68,ESE,109,0.0,-999.0,26,-99.99,,,0.00,0.0,cwc,2013-01-18 15:45:00,
2013-01-18 08:50:00,17.5,-8.4,30.66,ESE,109,0.0,-999.0,28,-99.99,,,0.00,0.0,cwc,2013-01-18 15:50:00,
2013-01-18 08:55:00,18.8,-6.8,30.66,ESE,109,0.0,-999.0,29,-99.99,,,0.00,0.0,cwc,2013-01-18 15:55:00,
2013-01-18 09:00:00,17.7,-6.4,30.66,ESE,109,0.0,-999.0,33,-99.99,,,0.00,0.0,cwc,2013-01-18 16:00:00,
2013-01-18 09:05:00,17.8,-6.0,30.65,ESE,109,0.0,-999.0,34,-99.99,,,0.00,0.0,cwc,2013-01-18 16:05:00,
2013-01-18 09:10:00,19.1,-2.9,30.65,ESE,109,0.0,-999.0,39,-99.99,,,0.00,0.0,cwc,2013-01-18 16:10:00,
2013-01-18 09:15:00,21.9,1.4,30.65,ESE,109,0.0,-999.0,43,-99.99,,,0.00,0.0,cwc,2013-01-18 16:15:00,
2013-01-18 09:20:00,20.6,2.2,30.66,ESE,110,2.0,-999.0,49,-99.99,,,0.00,0.0,cwc,2013-01-18 16:20:00,
2013-01-18 09:25:00,21.4,4.5,30.66,ESE,110,1.0,-999.0,53,-99.99,,,0.00,0.0,cwc,2013-01-18 16:25:00,
2013-01-18 09:30:00,21.1,1.3,30.66,ENE,58,2.0,-999.0,45,-99.99,,,0.00,0.0,cwc,2013-01-18 16:30:00,
2013-01-18 09:35:00,21.1,0.6,30.66,NNE,27,0.0,-999.0,43,-99.99,,,0.00,0.0,cwc,2013-01-18 16:35:00,
2013-01-18 09:40:00,21.8,1.6,30.66,NNE,27,0.0,-999.0,44,-99.99,,,0.00,0.0,cwc,2013-01-18 16:40:00,
2013-01-18 09:45:00,22.4,3.3,30.66,NNE,27,0.0,-999.0,47,-99.99,,,0.00,0.0,cwc,2013-01-18 16:45:00,
2013-01-18 09:50:00,22.2,-0.1,30.64,NNE,18,9.0,-999.0,38,-99.99,,,0.00,0.0,cwc,2013-01-18 16:50:00,
2013-01-18 09:55:00,22.7,-1.8,30.64,North,11,14.0,-999.0,32,-99.99,,,0.00,0.0,cwc,2013-01-18 16:55:00,
2013-01-18 10:00:00,22.9,-3.0,30.64,NNE,17,15.0,-999.0,28,-99.99,,,0.00,0.0,cwc,2013-01-18 17:00:00,
2013-01-18 10:05:00,23.3,-4.8,30.64,North,7,13.0,-999.0,22,-99.99,,,0.00,0.0,cwc,2013-01-18 17:05:00,
2013-01-18 10:10:00,24.4,-3.3,30.64,NNE,16,8.0,-999.0,23,-99.99,,,0.00,0.0,cwc,2013-01-18 17:10:00,
2013-01-18 10:15:00,25.0,-2.4,30.64,NE,38,15.0,-999.0,24,-99.99,,,0.00,0.0,cwc,2013-01-18 17:15:00,
2013-01-18 10:20:00,25.8,-1.6,30.62,NE,34,16.0,-999.0,24,-99.99,,,0.00,0.0,cwc,2013-01-18 17:20:00,
2013-01-18 10:25:00,26.7,-0.7,30.62,North,354,11.0,-999.0,24,-99.99,,,0.00,0.0,cwc,2013-01-18 17:25:00,
2013-01-18 10:30:00,27.3,11.1,30.62,NNE,14,11.0,-999.0,55,-99.99,,,0.00,0.0,cwc,2013-01-18 17:30:00,
2013-01-18 10:35:00,27.6,10.3,30.59,NNE,14,13.0,-999.0,52,-99.99,,,0.00,0.0,cwc,2013-01-18 17:35:00,
2013-01-18 10:40:00,28.4,11.5,30.59,North,11,13.0,-999.0,53,-99.99,,,0.00,0.0,cwc,2013-01-18 17:40:00,
2013-01-18 10:45:00,28.5,10.9,30.59,NNE,28,17.0,-999.0,51,-99.99,,,0.00,0.0,cwc,2013-01-18 17:45:00,
2013-01-18 10:50:00,28.7,10.7,30.56,NNE,17,15.0,-999.0,50,-99.99,,,0.00,0.0,cwc,2013-01-18 17:50:00,
2013-01-18 10:55:00,29.4,12.5,30.56,NE,52,13.0,-999.0,53,-99.99,,,0.00,0.0,cwc,2013-01-18 17:55:00,
2013-01-18 11:00:00,29.8,11.4,30.56,NE,34,10.0,-999.0,49,-99.99,,,0.00,0.0,cwc,2013-01-18 18:00:00,
2013-01-18 11:05:00,30.1,11.7,30.55,NE,51,13.0,-999.0,49,-99.99,,,0.00,0.0,cwc,2013-01-18 18:05:00,
2013-01-18 11:10:00,30.9,12.5,30.55,NE,35,13.0,-999.0,49,-99.99,,,0.00,0.0,cwc,2013-01-18 18:10:00,
2013-01-18 11:15:00,31.5,13.5,30.55,North,3,16.0,-999.0,50,-99.99,,,0.00,0.0,cwc,2013-01-18 18:15:00,
2013-01-18 11:20:00,31.6,12.5,30.52,NE,40,10.0,-999.0,47,-99.99,,,0.00,0.0,cwc,2013-01-18 18:20:00,
2013-01-18 11:25:00,32.5,13.4,30.52,NNE,25,11.0,-999.0,47,-99.99,,,0.00,0.0,cwc,2013-01-18 18:25:00,
2013-01-18 11:30:00,32.8,13.0,30.52,NE,34,8.0,-999.0,45,-99.99,,,0.00,0.0,cwc,2013-01-18 18:30:00,
2013-01-18 11:35:00,33.7,13.9,30.51,NE,35,6.0,-999.0,45,-99.99,,,0.00,0.0,cwc,2013-01-18 18:35:00,
2013-01-18 11:40:00,33.7,13.9,30.51,NE,40,6.0,-999.0,45,-99.99,,,0.00,0.0,cwc,2013-01-18 18:40:00,
2013-01-18 11:45:00,34.6,14.1,30.51,NNE,23,9.0,-999.0,43,-99.99,,,0.00,0.0,cwc,2013-01-18 18:45:00,
2013-01-18 11:50:00,34.7,14.2,30.48,NNE,13,9.0,-999.0,43,-99.99,,,0.00,0.0,cwc,2013-01-18 18:50:00,
2013-01-18 11:55:00,35.0,14.1,30.48,NE,38,10.0,-999.0,42,-99.99,,,0.00,0.0,cwc,2013-01-18 18:55:00,
2013-01-18 12:00:00,35.0,14.1,30.48,NNE,32,9.0,-999.0,42,-99.99,,,0.00,0.0,cwc,2013-01-18 19:00:00,
2013-01-18 12:05:00,35.6,14.0,30.47,NE,56,10.0,-999.0,40,-99.99,,,0.00,0.0,cwc,2013-01-18 19:05:00,
2013-01-18 12:10:00,36.2,15.7,30.47,NNE,23,9.0,-999.0,43,-99.99,,,0.00,0.0,cwc,2013-01-18 19:10:00,
2013-01-18 12:15:00,36.8,15.6,30.47,NNE,27,8.0,-999.0,41,-99.99,,,0.00,0.0,cwc,2013-01-18 19:15:00,
2013-01-18 12:20:00,37.0,15.4,30.46,NE,51,8.0,-999.0,40,-99.99,,,0.00,0.0,cwc,2013-01-18 19:20:00,
2013-01-18 12:25:00,37.8,15.8,30.46,NNE,13,7.0,-999.0,39,-99.99,,,0.00,0.0,cwc,2013-01-18 19:25:00,
2013-01-18 12:30:00,37.9,15.6,30.46,NE,45,7.0,-999.0,38,-99.99,,,0.00,0.0,cwc,2013-01-18 19:30:00,
2013-01-18 12:35:00,37.9,16.3,30.43,NE,48,9.0,-999.0,40,-99.99,,,0.00,0.0,cwc,2013-01-18 19:35:00,
2013-01-18 12:40:00,38.0,16.0,30.43,NE,34,9.0,-999.0,39,-99.99,,,0.00,0.0,cwc,2013-01-18 19:40:00,
2013-01-18 12:45:00,38.5,16.9,30.43,NE,49,9.0,-999.0,40,-99.99,,,0.00,0.0,cwc,2013-01-18 19:45:00,
2013-01-18 12:50:00,38.9,16.9,30.42,NNE,16,7.0,-999.0,39,-99.99,,,0.00,0.0,cwc,2013-01-18 19:50:00,
2013-01-18 12:55:00,39.2,17.2,30.42,ENE,58,8.0,-999.0,39,-99.99,,,0.00,0.0,cwc,2013-01-18 19:55:00,
2013-01-18 13:00:00,39.3,17.0,30.42,North,11,11.0,-999.0,38,-99.99,,,0.00,0.0,cwc,2013-01-18 20:00:00,
2013-01-18 13:10:00,39.6,17.3,30.40,NE,44,2.0,-999.0,38,-99.99,,,0.00,0.0,cwc,2013-01-18 20:10:00,
2013-01-18 13:15:00,39.9,17.2,30.40,NE,48,8.0,-999.0,37,-99.99,,,0.00,0.0,cwc,2013-01-18 20:15:00,
2013-01-18 13:25:00,40.6,17.9,30.41,NNE,32,7.0,-999.0,37,-99.99,,,0.00,0.0,cwc,2013-01-18 20:25:00,
2013-01-18 13:30:00,41.1,18.4,30.41,NNE,30,4.0,-999.0,37,-99.99,,,0.00,0.0,cwc,2013-01-18 20:30:00,
2013-01-18 13:35:00,41.1,18.1,30.39,NNE,32,4.0,-999.0,36,-99.99,,,0.00,0.0,cwc,2013-01-18 20:35:00,
2013-01-18 13:40:00,41.8,18.8,30.39,NNE,24,4.0,-999.0,36,-99.99,,,0.00,0.0,cwc,2013-01-18 20:40:00,
2013-01-18 13:45:00,41.8,19.1,30.39,NE,49,7.0,-999.0,37,-99.99,,,0.00,0.0,cwc,2013-01-18 20:45:00,
2013-01-18 13:50:00,41.9,18.5,30.38,NE,45,6.0,-999.0,35,-99.99,,,0.00,0.0,cwc,2013-01-18 20:50:00,
2013-01-18 13:55:00,42.3,18.2,30.38,NE,47,10.0,-999.0,33,-99.99,,,0.00,0.0,cwc,2013-01-18 20:55:00,
2013-01-18 14:00:00,42.5,19.5,30.38,NE,47,7.0,-999.0,36,-99.99,,,0.00,0.0,cwc,2013-01-18 21:00:00,
2013-01-18 14:10:00,43.2,19.1,30.38,NNE,20,0.0,-999.0,33,-99.99,,,0.00,0.0,cwc,2013-01-18 21:10:00,
2013-01-18 14:15:00,43.9,19.8,30.38,NNE,24,2.0,-999.0,33,-99.99,,,0.00,0.0,cwc,2013-01-18 21:15:00,
2013-01-18 14:20:00,43.6,19.1,30.37,NE,42,2.0,-999.0,32,-99.99,,,0.00,0.0,cwc,2013-01-18 21:20:00,
2013-01-18 14:25:00,44.2,19.7,30.37,NNE,18,6.0,-999.0,32,-99.99,,,0.00,0.0,cwc,2013-01-18 21:25:00,
2013-01-18 14:30:00,44.3,20.2,30.37,NNE,14,4.0,-999.0,33,-99.99,,,0.00,0.0,cwc,2013-01-18 21:30:00,
2013-01-18 14:35:00,44.6,19.8,30.37,NNE,32,2.0,-999.0,31,-99.99,,,0.00,0.0,cwc,2013-01-18 21:35:00,
2013-01-18 14:40:00,44.3,19.1,30.37,NNE,31,6.0,-999.0,30,-99.99,,,0.00,0.0,cwc,2013-01-18 21:40:00,
2013-01-18 14:45:00,44.6,19.4,30.37,NNE,20,2.0,-999.0,30,-99.99,,,0.00,0.0,cwc,2013-01-18 21:45:00,
2013-01-18 14:50:00,44.6,19.8,30.36,NE,44,1.0,-999.0,31,-99.99,,,0.00,0.0,cwc,2013-01-18 21:50:00,
2013-01-18 14:55:00,44.6,19.4,30.36,NE,45,7.0,-999.0,30,-99.99,,,0.00,0.0,cwc,2013-01-18 21:55:00,
2013-01-18 15:00:00,44.8,20.3,30.36,NE,41,4.0,-999.0,32,-99.99,,,0.00,0.0,cwc,2013-01-18 22:00:00,
2013-01-18 15:05:00,45.1,19.9,30.36,NE,35,4.0,-999.0,30,-99.99,,,0.00,0.0,cwc,2013-01-18 22:05:00,
2013-01-18 15:10:00,45.1,19.9,30.36,NNE,21,7.0,-999.0,30,-99.99,,,0.00,0.0,cwc,2013-01-18 22:10:00,
2013-01-18 15:15:00,45.1,20.3,30.36,NE,55,6.0,-999.0,31,-99.99,,,0.00,0.0,cwc,2013-01-18 22:15:00,
2013-01-18 15:20:00,45.2,20.0,30.34,NE,44,8.0,-999.0,30,-99.99,,,0.00,0.0,cwc,2013-01-18 22:20:00,
2013-01-18 15:25:00,45.5,20.3,30.34,NNE,27,6.0,-999.0,30,-99.99,,,0.00,0.0,cwc,2013-01-18 22:25:00,
2013-01-18 15:30:00,45.5,20.7,30.34,NNE,25,1.0,-999.0,31,-99.99,,,0.00,0.0,cwc,2013-01-18 22:30:00,
2013-01-18 15:35:00,45.5,20.7,30.32,NNE,20,4.0,-999.0,31,-99.99,,,0.00,0.0,cwc,2013-01-18 22:35:00,
2013-01-18 15:40:00,45.5,20.7,30.32,NNE,13,6.0,-999.0,31,-99.99,,,0.00,0.0,cwc,2013-01-18 22:40:00,
2013-01-18 15:45:00,46.0,21.2,30.32,NNE,13,1.0,-999.0,31,-99.99,,,0.00,0.0,cwc,2013-01-18 22:45:00,
2013-01-18 15:50:00,45.5,20.7,30.32,NE,41,7.0,-999.0,31,-99.99,,,0.00,0.0,cwc,2013-01-18 22:50:00,
2013-01-18 15:55:00,45.4,20.2,30.32,NE,38,6.0,-999.0,30,-99.99,,,0.00,0.0,cwc,2013-01-18 22:55:00,
2013-01-18 16:00:00,45.7,20.9,30.32,NNE,25,4.0,-999.0,31,-99.99,,,0.00,0.0,cwc,2013-01-18 23:00:00,
2013-01-18 16:05:00,45.5,20.3,30.32,NNE,23,6.0,-999.0,30,-99.99,,,0.00,0.0,cwc,2013-01-18 23:05:00,
2013-01-18 16:10:00,45.5,21.0,30.32,NNE,23,7.0,-999.0,32,-99.99,,,0.00,0.0,cwc,2013-01-18 23:10:00,
2013-01-18 16:15:00,45.4,20.2,30.32,NNE,23,10.0,-999.0,30,-99.99,,,0.00,0.0,cwc,2013-01-18 23:15:00,
2013-01-18 16:25:00,44.8,20.0,30.35,NE,42,8.0,-999.0,31,-99.99,,,0.00,0.0,cwc,2013-01-18 23:25:00,
2013-01-18 16:30:00,44.8,20.3,30.35,NE,41,1.0,-999.0,32,-99.99,,,0.00,0.0,cwc,2013-01-18 23:30:00,
2013-01-18 16:35:00,44.6,20.1,30.34,NE,37,9.0,-999.0,32,-99.99,,,0.00,0.0,cwc,2013-01-18 23:35:00,
2013-01-18 16:40:00,44.3,19.5,30.34,NE,37,6.0,-999.0,31,-99.99,,,0.00,0.0,cwc,2013-01-18 23:40:00,
2013-01-18 16:45:00,44.1,19.6,30.34,NNE,27,7.0,-999.0,32,-99.99,,,0.00,0.0,cwc,2013-01-18 23:45:00,
2013-01-18 16:50:00,43.5,19.7,30.36,NNE,27,7.0,-999.0,34,-99.99,,,0.00,0.0,cwc,2013-01-18 23:50:00,
2013-01-18 16:55:00,43.1,19.3,30.36,NNE,27,9.0,-999.0,34,-99.99,,,0.00,0.0,cwc,2013-01-18 23:55:00,
2013-01-18 17:00:00,42.6,19.2,30.36,NNE,27,6.0,-999.0,35,-99.99,,,0.00,0.0,cwc,2013-01-19 00:00:00,
2013-01-18 17:05:00,42.1,19.1,30.36,NNE,27,2.0,-999.0,36,-99.99,,,0.00,0.0,cwc,2013-01-19 00:05:00,
2013-01-18 17:10:00,42.1,20.5,30.36,NNE,27,0.0,-999.0,40,-99.99,,,0.00,0.0,cwc,2013-01-19 00:10:00,
2013-01-18 17:15:00,42.2,19.9,30.36,NNE,27,0.0,-999.0,38,-99.99,,,0.00,0.0,cwc,2013-01-19 00:15:00,
2013-01-18 17:20:00,41.9,21.0,30.39,NNE,27,0.0,-999.0,42,-99.99,,,0.00,0.0,cwc,2013-01-19 00:20:00,
2013-01-18 17:25:00,41.5,28.2,30.39,NNE,27,2.0,-999.0,63,-99.99,,,0.00,0.0,cwc,2013-01-19 00:25:00,
2013-01-18 17:30:00,39.1,18.9,30.39,NNE,30,0.0,-999.0,44,-99.99,,,0.00,0.0,cwc,2013-01-19 00:30:00,
2013-01-18 17:35:00,37.6,17.4,30.41,NNE,30,1.0,-999.0,44,-99.99,,,0.00,0.0,cwc,2013-01-19 00:35:00,
2013-01-18 17:40:00,40.2,27.6,30.41,NNE,30,1.0,-999.0,65,-99.99,,,0.00,0.0,cwc,2013-01-19 00:40:00,
2013-01-18 17:45:00,37.5,23.5,30.41,NNE,30,1.0,-999.0,61,-99.99,,,0.00,0.0,cwc,2013-01-19 00:45:00,
2013-01-18 17:50:00,39.8,25.0,30.43,NNE,30,0.0,-999.0,59,-99.99,,,0.00,0.0,cwc,2013-01-19 00:50:00,
2013-01-18 17:55:00,37.0,22.2,30.43,NNE,30,0.0,-999.0,59,-99.99,,,0.00,0.0,cwc,2013-01-19 00:55:00,
2013-01-18 18:00:00,36.5,17.8,30.43,NNE,30,4.0,-999.0,48,-99.99,,,0.00,0.0,cwc,2013-01-19 01:00:00,
2013-01-18 18:05:00,36.2,17.1,30.43,NNE,30,0.0,-999.0,47,-99.99,,,0.00,0.0,cwc,2013-01-19 01:05:00,
2013-01-18 18:10:00,35.9,17.5,30.43,NNE,30,0.0,-999.0,49,-99.99,,,0.00,0.0,cwc,2013-01-19 01:10:00,
2013-01-18 18:15:00,35.0,16.3,30.43,NNE,30,0.0,-999.0,48,-99.99,,,0.00,0.0,cwc,2013-01-19 01:15:00,
2013-01-18 18:20:00,34.1,15.7,30.29,NNE,30,0.0,-999.0,49,-99.99,,,0.00,0.0,cwc,2013-01-19 01:20:00,
2013-01-18 18:25:00,32.9,15.6,30.29,NNE,30,0.0,-999.0,52,-99.99,,,0.00,0.0,cwc,2013-01-19 01:25:00,
2013-01-18 18:30:00,34.4,18.9,30.29,NNE,30,0.0,-999.0,57,-99.99,,,0.00,0.0,cwc,2013-01-19 01:30:00,
2013-01-18 18:35:00,33.2,16.3,30.32,NNE,30,0.0,-999.0,53,-99.99,,,0.00,0.0,cwc,2013-01-19 01:35:00,
2013-01-18 18:40:00,34.4,22.2,30.32,NNE,30,0.0,-999.0,66,-99.99,,,0.00,0.0,cwc,2013-01-19 01:40:00,
2013-01-18 18:45:00,32.1,17.7,30.32,NNE,30,0.0,-999.0,60,-99.99,,,0.00,0.0,cwc,2013-01-19 01:45:00,
2013-01-18 18:50:00,35.3,22.0,30.34,NNE,30,0.0,-999.0,63,-99.99,,,0.00,0.0,cwc,2013-01-19 01:50:00,
2013-01-18 18:55:00,31.6,20.4,30.34,NNE,30,0.0,-999.0,69,-99.99,,,0.00,0.0,cwc,2013-01-19 01:55:00,
2013-01-18 19:00:00,29.8,15.0,30.34,NNE,30,4.0,-999.0,59,-99.99,,,0.00,0.0,cwc,2013-01-19 02:00:00,
2013-01-18 19:05:00,30.1,18.2,30.37,NNE,30,0.0,-999.0,67,-99.99,,,0.00,0.0,cwc,2013-01-19 02:05:00,
2013-01-18 19:10:00,29.0,15.3,30.37,NNE,30,0.0,-999.0,62,-99.99,,,0.00,0.0,cwc,2013-01-19 02:10:00,
2013-01-18 19:15:00,28.8,15.8,30.37,NNE,30,0.0,-999.0,64,-99.99,,,0.00,0.0,cwc,2013-01-19 02:15:00,
2013-01-18 19:20:00,27.8,14.8,30.48,NNE,30,0.0,-999.0,64,-99.99,,,0.00,0.0,cwc,2013-01-19 02:20:00,
2013-01-18 19:25:00,27.0,13.7,30.48,NNE,30,0.0,-999.0,63,-99.99,,,0.00,0.0,cwc,2013-01-19 02:25:00,
2013-01-18 19:30:00,28.2,17.0,30.48,NNE,30,0.0,-999.0,69,-99.99,,,0.00,0.0,cwc,2013-01-19 02:30:00,
2013-01-18 19:35:00,27.9,16.0,30.48,NNE,30,0.0,-999.0,67,-99.99,,,0.00,0.0,cwc,2013-01-19 02:35:00,
2013-01-18 19:40:00,27.2,17.8,30.48,NNE,30,0.0,-999.0,74,-99.99,,,0.00,0.0,cwc,2013-01-19 02:40:00,
2013-01-18 19:45:00,27.8,17.0,30.48,NNE,30,0.0,-999.0,70,-99.99,,,0.00,0.0,cwc,2013-01-19 02:45:00,
2013-01-18 19:50:00,29.3,16.3,30.48,NNE,30,0.0,-999.0,64,-99.99,,,0.00,0.0,cwc,2013-01-19 02:50:00,
2013-01-18 19:55:00,26.9,17.2,30.48,NNE,30,0.0,-999.0,73,-99.99,,,0.00,0.0,cwc,2013-01-19 02:55:00,
2013-01-18 20:00:00,26.3,15.1,30.48,NNE,30,0.0,-999.0,69,-99.99,,,0.00,0.0,cwc,2013-01-19 03:00:00,
2013-01-18 20:05:00,25.8,14.3,30.50,NNE,30,0.0,-999.0,68,-99.99,,,0.00,0.0,cwc,2013-01-19 03:05:00,
2013-01-18 20:10:00,27.2,16.4,30.50,NNE,30,0.0,-999.0,70,-99.99,,,0.00,0.0,cwc,2013-01-19 03:10:00,
2013-01-18 20:15:00,25.3,15.6,30.50,NNE,30,0.0,-999.0,73,-99.99,,,0.00,0.0,cwc,2013-01-19 03:15:00,
2013-01-18 20:20:00,24.5,15.1,30.46,NNE,30,0.0,-999.0,74,-99.99,,,0.00,0.0,cwc,2013-01-19 03:20:00,
2013-01-18 20:25:00,24.8,16.9,30.46,NNE,30,0.0,-999.0,78,-99.99,,,0.00,0.0,cwc,2013-01-19 03:25:00,
2013-01-18 20:30:00,24.5,16.2,30.46,NNE,30,0.0,-999.0,77,-99.99,,,0.00,0.0,cwc,2013-01-19 03:30:00,
2013-01-18 20:35:00,26.7,18.4,30.50,NNE,30,0.0,-999.0,77,-99.99,,,0.00,0.0,cwc,2013-01-19 03:35:00,
2013-01-18 20:40:00,25.6,19.5,30.50,NNE,30,0.0,-999.0,83,-99.99,,,0.00,0.0,cwc,2013-01-19 03:40:00,
2013-01-18 20:50:00,24.7,17.5,30.49,NNE,21,0.0,-999.0,80,-99.99,,,0.00,0.0,cwc,2013-01-19 03:50:00,
2013-01-18 21:00:00,23.8,15.5,30.49,NNE,21,0.0,-999.0,77,-99.99,,,0.00,0.0,cwc,2013-01-19 04:00:00,
2013-01-18 21:05:00,24.8,17.2,30.51,NNE,21,0.0,-999.0,79,-99.99,,,0.00,0.0,cwc,2013-01-19 04:05:00,
2013-01-18 21:10:00,23.5,22.1,30.51,NNE,21,0.0,-999.0,96,-99.99,,,0.00,0.0,cwc,2013-01-19 04:10:00,
2013-01-18 21:15:00,23.9,21.0,30.51,NNE,21,0.0,-999.0,92,-99.99,,,0.00,0.0,cwc,2013-01-19 04:15:00,
2013-01-18 21:20:00,23.0,19.8,30.48,NNE,21,0.0,-999.0,91,-99.99,,,0.00,0.0,cwc,2013-01-19 04:20:00,
2013-01-18 21:25:00,22.4,18.4,30.48,NNE,21,0.0,-999.0,89,-99.99,,,0.00,0.0,cwc,2013-01-19 04:25:00,
2013-01-18 21:35:00,21.8,18.6,30.48,NNE,21,0.0,-999.0,91,-99.99,,,0.00,0.0,cwc,2013-01-19 04:35:00,
2013-01-18 21:40:00,23.9,12.4,30.48,NNE,21,0.0,-999.0,68,-99.99,,,0.00,0.0,cwc,2013-01-19 04:40:00,
2013-01-18 21:45:00,24.1,21.2,30.48,NNE,21,0.0,-999.0,92,-99.99,,,0.00,0.0,cwc,2013-01-19 04:45:00,
2013-01-18 21:50:00,22.1,21.4,30.49,NNE,21,0.0,-999.0,98,-99.99,,,0.00,0.0,cwc,2013-01-19 04:50:00,
2013-01-18 21:55:00,27.0,24.8,30.49,NNE,21,0.0,-999.0,94,-99.99,,,0.00,0.0,cwc,2013-01-19 04:55:00,
2013-01-18 22:05:00,22.1,10.9,30.48,NNE,21,0.0,-999.0,69,-99.99,,,0.00,0.0,cwc,2013-01-19 05:05:00,
2013-01-18 22:10:00,21.3,-14.7,30.48,NNE,21,0.0,-999.0,0,-99.99,,,0.00,0.0,cwc,2013-01-19 05:10:00,
2013-01-18 22:15:00,22.1,-13.9,30.48,NNE,21,0.0,-999.0,0,-99.99,,,0.00,0.0,cwc,2013-01-19 05:15:00,
2013-01-18 22:20:00,25.6,17.3,30.42,NNE,21,0.0,-999.0,77,-99.99,,,0.00,0.0,cwc,2013-01-19 05:20:00,
2013-01-18 22:25:00,22.5,-12.8,30.42,NNE,21,0.0,-999.0,2,-99.99,,,0.00,0.0,cwc,2013-01-19 05:25:00,
2013-01-18 22:30:00,27.2,17.5,30.42,NNE,21,0.0,-999.0,73,-99.99,,,0.00,0.0,cwc,2013-01-19 05:30:00,
2013-01-18 22:35:00,24.8,12.9,30.42,NNE,21,0.0,-999.0,67,-99.99,,,0.00,0.0,cwc,2013-01-19 05:35:00,
2013-01-18 22:40:00,21.8,-13.1,30.42,NNE,21,0.0,-999.0,3,-99.99,,,0.00,0.0,cwc,2013-01-19 05:40:00,
2013-01-18 22:45:00,20.3,-15.7,30.42,NNE,21,0.0,-999.0,0,-99.99,,,0.00,0.0,cwc,2013-01-19 05:45:00,
2013-01-18 22:50:00,20.2,-15.8,30.43,NNE,21,0.0,-999.0,0,-99.99,,,0.00,0.0,cwc,2013-01-19 05:50:00,
2013-01-18 22:55:00,21.4,-14.6,30.43,NNE,21,0.0,-999.0,0,-99.99,,,0.00,0.0,cwc,2013-01-19 05:55:00,
2013-01-18 23:00:00,20.2,-15.1,30.43,NNE,21,0.0,-999.0,2,-99.99,,,0.00,0.0,cwc,2013-01-19 06:00:00,
2013-01-18 23:05:00,20.8,-15.2,30.48,NNE,21,0.0,-999.0,0,-99.99,,,0.00,0.0,cwc,2013-01-19 06:05:00,
2013-01-18 23:10:00,20.2,-15.8,30.48,NNE,21,0.0,-999.0,0,-99.99,,,0.00,0.0,cwc,2013-01-19 06:10:00,
2013-01-18 23:15:00,19.5,-16.5,30.48,NNE,21,0.0,-999.0,0,-99.99,,,0.00,0.0,cwc,2013-01-19 06:15:00,
2013-01-18 23:20:00,20.0,-16.0,30.45,NNE,21,0.0,-999.0,0,-99.99,,,0.00,0.0,cwc,2013-01-19 06:20:00,
2013-01-18 23:25:00,19.9,-16.1,30.45,NNE,21,0.0,-999.0,0,-99.99,,,0.00,0.0,cwc,2013-01-19 06:25:00,
2013-01-18 23:30:00,18.1,-17.9,30.45,NNE,21,0.0,-999.0,0,-99.99,,,0.00,0.0,cwc,2013-01-19 06:30:00,
2013-01-18 23:35:00,18.0,-18.0,30.47,NNE,21,0.0,-999.0,0,-99.99,,,0.00,0.0,cwc,2013-01-19 06:35:00,
2013-01-18 23:40:00,25.1,-5.1,30.47,NNE,21,0.0,-999.0,16,-99.99,,,0.00,0.0,cwc,2013-01-19 06:40:00,
2013-01-18 23:45:00,24.8,-2.9,30.47,NNE,21,0.0,-999.0,23,-99.99,,,0.00,0.0,cwc,2013-01-19 06:45:00,
2013-01-18 23:50:00,22.9,2.7,30.42,NNE,21,0.0,-999.0,44,-99.99,,,0.00,0.0,cwc,2013-01-19 06:50:00,
2013-01-18 23:55:00,24.7,-11.3,30.42,NNE,21,0.0,-999.0,0,-99.99,,,0.00,0.0,cwc,2013-01-19 06:55:00,